Dades meteomassalio
Diari Summary for Marc 23, 2017 Units:  Metric    English   Both
« Previous Day
Next Day »
Diari Semanal Mensual Anual Personalitzat
  Maxima: Minima: Mijana:
Temperatura: 13.6 °C 3.4 °C 7.7 °C
Rosada: 4.5 °C -1.4 °C 1.9 °C
Humitat: 89 % 38 % 69 %
Velocitat del vent: 38.9 km/h 0.0 km/h 10 km/h
Racha vent: 38.9 km/h - -
Vent:- - WSW
Pressio: 1014.4 hPa 1009.4 hPa -
Pluja: 0.5 mm    
Historical Graphs
 
 
Tabular Data for Marc 23, 2017
Time Temperature Dew Point Pressure Wind Wind Speed Wind Gust Humidity Rainfall Rate (Hourly) solar Conditions
00:00 7.7 °C 4.1 °C 1010.7 hPa Calm     78 % 0.0 mm 0.0 W/m2 CLR
00:05 7.7 °C 4.1 °C 1010.7 hPa Calm     78 % 0.0 mm 0.0 W/m2 CLR
00:10 7.7 °C 4.1 °C 1010.7 hPa Calm     78 % 0.0 mm 0.0 W/m2 CLR
00:15 7.7 °C 4.1 °C 1010.7 hPa Calm     78 % 0.0 mm 0.0 W/m2 CLR
00:20 7.6 °C 4.0 °C 1010.7 hPa Calm     78 % 0.0 mm 0.0 W/m2 CLR
00:25 7.5 °C 3.9 °C 1010.7 hPa Calm     78 % 0.0 mm 0.0 W/m2 CLR
00:30 7.3 °C 3.9 °C 1010.7 hPa Calm     79 % 0.0 mm 0.0 W/m2 CLR
00:35 7.2 °C 4.1 °C 1010.7 hPa Calm     81 % 0.0 mm 0.0 W/m2 CLR
00:40 7.1 °C 4.1 °C 1010.7 hPa Calm     81 % 0.0 mm 0.0 W/m2 CLR
00:45 7.1 °C 4.1 °C 1010.7 hPa Calm     81 % 0.0 mm 0.0 W/m2 CLR
00:50 7.2 °C 4.2 °C 1010.4 hPa Calm     81 % 0.0 mm 0.0 W/m2 CLR
00:55 7.2 °C 4.2 °C 1010.7 hPa Calm     81 % 0.0 mm 0.0 W/m2 CLR
01:00 7.2 °C 4.1 °C 1010.7 hPa Calm     81 % 0.0 mm 0.0 W/m2 CLR
01:05 7.2 °C 4.2 °C 1010.7 hPa Calm     81 % 0.0 mm 0.0 W/m2 CLR
01:10 7.2 °C 4.2 °C 1010.7 hPa Calm     81 % 0.0 mm 0.0 W/m2 CLR
01:15 7.2 °C 4.2 °C 1010.7 hPa Calm     81 % 0.0 mm 0.0 W/m2 CLR
01:20 7.2 °C 4.2 °C 1010.7 hPa Calm     81 % 0.0 mm 0.0 W/m2 CLR
01:25 7.3 °C 4.2 °C 1010.7 hPa Calm     81 % 0.0 mm 0.0 W/m2 CLR
01:30 7.3 °C 4.2 °C 1010.7 hPa Calm     81 % 0.0 mm 0.0 W/m2 CLR
01:35 7.3 °C 4.2 °C 1010.7 hPa Calm     81 % 0.0 mm 0.0 W/m2 CLR
01:40 7.3 °C 4.2 °C 1010.7 hPa Calm     81 % 0.0 mm 0.0 W/m2 CLR
01:45 7.2 °C 4.0 °C 1010.7 hPa Calm     80 % 0.0 mm 0.0 W/m2 CLR
01:50 7.3 °C 4.1 °C 1010.7 hPa Calm     80 % 0.0 mm 0.0 W/m2 CLR
01:55 7.3 °C 4.2 °C 1010.7 hPa Calm     81 % 0.0 mm 0.0 W/m2 CLR
02:00 7.3 °C 4.3 °C 1010.7 hPa Calm     81 % 0.0 mm 0.0 W/m2 CLR
02:05 7.3 °C 4.3 °C 1010.7 hPa Calm     81 % 0.0 mm 0.0 W/m2 CLR
02:10 7.3 °C 4.3 °C 1010.4 hPa Calm     81 % 0.0 mm 0.0 W/m2 CLR
02:15 7.3 °C 4.3 °C 1010.4 hPa Calm     81 % 0.0 mm 0.0 W/m2 CLR
02:20 7.4 °C 4.3 °C 1010.4 hPa Calm     81 % 0.0 mm 0.0 W/m2 CLR
02:25 7.4 °C 4.5 °C 1010.4 hPa Calm     82 % 0.0 mm 0.0 W/m2 CLR
02:30 7.3 °C 4.4 °C 1010.4 hPa Calm     82 % 0.0 mm 0.0 W/m2 CLR
02:35 7.3 °C 4.4 °C 1010.4 hPa Calm     82 % 0.0 mm 0.0 W/m2 CLR
02:40 7.4 °C 4.5 °C 1010.0 hPa Calm     82 % 0.0 mm 0.0 W/m2 CLR
02:46 7.4 °C 4.5 °C 1010.4 hPa Calm     82 % 0.0 mm 0.0 W/m2 CLR
02:51 7.4 °C 4.4 °C 1010.0 hPa Calm     81 % 0.0 mm 0.0 W/m2 CLR
02:56 7.4 °C 4.4 °C 1010.0 hPa Calm     81 % 0.0 mm 0.0 W/m2 CLR
03:01 7.4 °C 4.4 °C 1009.7 hPa Calm     81 % 0.0 mm 0.0 W/m2 CLR
03:06 7.4 °C 4.2 °C 1009.7 hPa Calm     80 % 0.0 mm 0.0 W/m2 CLR
03:11 7.4 °C 4.2 °C 1009.7 hPa Calm     80 % 0.0 mm 0.0 W/m2 CLR
03:16 7.3 °C 4.3 °C 1009.7 hPa Calm     81 % 0.0 mm 0.0 W/m2 CLR
03:21 7.2 °C 4.2 °C 1009.4 hPa Calm     81 % 0.0 mm 0.0 W/m2 CLR
03:26 7.2 °C 4.2 °C 1009.4 hPa Calm     81 % 0.0 mm 0.0 W/m2 CLR
03:31 7.2 °C 4.3 °C 1009.4 hPa Calm     82 % 0.0 mm 0.0 W/m2 CLR
03:36 7.1 °C 4.4 °C 1009.4 hPa Calm     83 % 0.0 mm 0.0 W/m2 CLR
03:41 7.0 °C 4.3 °C 1009.7 hPa Calm     83 % 0.0 mm 0.0 W/m2 CLR
03:46 6.9 °C 4.3 °C 1010.0 hPa Calm     83 % 0.0 mm 0.0 W/m2 CLR
03:51 6.9 °C 4.2 °C 1009.7 hPa Calm     83 % 0.0 mm 0.0 W/m2 CLR
03:56 6.8 °C 4.3 °C 1009.7 hPa Calm     84 % 0.0 mm 0.0 W/m2 CLR
04:01 6.8 °C 4.3 °C 1010.0 hPa Calm     84 % 0.0 mm 0.0 W/m2 CLR
04:06 6.8 °C 4.3 °C 1009.7 hPa Calm     84 % 0.0 mm 0.0 W/m2 CLR
04:11 6.7 °C 4.2 °C 1009.7 hPa Calm     84 % 0.0 mm 0.0 W/m2 CLR
04:16 6.6 °C 4.1 °C 1009.7 hPa Calm     84 % 0.0 mm 0.0 W/m2 CLR
04:21 6.6 °C 4.1 °C 1009.7 hPa Calm     84 % 0.0 mm 0.0 W/m2 CLR
04:26 6.6 °C 4.1 °C 1009.7 hPa Calm     84 % 0.0 mm 0.0 W/m2 CLR
04:31 6.6 °C 4.1 °C 1009.7 hPa Calm     84 % 0.0 mm 0.0 W/m2 CLR
04:36 6.6 °C 3.9 °C 1009.7 hPa Calm     83 % 0.0 mm 0.0 W/m2 CLR
04:41 6.6 °C 3.8 °C 1010.0 hPa Calm     82 % 0.0 mm 0.0 W/m2 CLR
04:46 6.6 °C 3.6 °C 1009.7 hPa NNW 9.7 km/h 9.7 km/h 81 % 0.0 mm 0.0 W/m2 CLR
04:51 6.7 °C 3.3 °C 1010.0 hPa Calm     79 % 0.0 mm 0.0 W/m2 CLR
04:56 6.8 °C 3.0 °C 1010.0 hPa NW 16.7 km/h 16.7 km/h 77 % 0.0 mm 0.0 W/m2 CLR
05:01 6.8 °C 2.7 °C 1010.0 hPa NNW 18.5 km/h 18.5 km/h 75 % 0.0 mm 0.0 W/m2 CLR
05:06 6.8 °C 2.4 °C 1010.0 hPa NW 16.7 km/h 16.7 km/h 74 % 0.0 mm 0.0 W/m2 CLR
05:11 6.8 °C 2.3 °C 1010.0 hPa NW 11.3 km/h 11.3 km/h 73 % 0.0 mm 0.0 W/m2 CLR
05:16 6.8 °C 2.3 °C 1010.0 hPa NW 16.7 km/h 16.7 km/h 73 % 0.0 mm 0.0 W/m2 CLR
05:21 6.8 °C 2.3 °C 1010.0 hPa WNW 11.1 km/h 11.1 km/h 73 % 0.0 mm 0.0 W/m2 CLR
05:26 6.7 °C 2.2 °C 1010.4 hPa WNW 14.5 km/h 14.5 km/h 73 % 0.0 mm 0.0 W/m2 CLR
05:31 6.7 °C 2.2 °C 1010.4 hPa NW 14.8 km/h 14.8 km/h 73 % 0.0 mm 0.0 W/m2 CLR
05:36 6.7 °C 2.2 °C 1010.4 hPa NW 14.8 km/h 14.8 km/h 73 % 0.0 mm 0.0 W/m2 CLR
05:41 6.7 °C 2.0 °C 1010.4 hPa NW 18.5 km/h 18.5 km/h 72 % 0.0 mm 0.0 W/m2 CLR
05:46 6.7 °C 2.2 °C 1010.4 hPa NW 13.0 km/h 13.0 km/h 73 % 0.0 mm 0.0 W/m2 CLR
05:51 6.6 °C 2.1 °C 1010.4 hPa WNW 13.0 km/h 13.0 km/h 73 % 0.0 mm 0.0 W/m2 CLR
05:56 6.6 °C 2.1 °C 1010.4 hPa WNW 22.2 km/h 22.2 km/h 73 % 0.0 mm 0.0 W/m2 CLR
06:01 6.6 °C 2.1 °C 1010.4 hPa WNW 16.7 km/h 16.7 km/h 73 % 0.0 mm 0.0 W/m2 CLR
06:06 6.6 °C 2.1 °C 1010.4 hPa NNW 18.5 km/h 18.5 km/h 73 % 0.0 mm 0.0 W/m2 CLR
06:11 6.6 °C 1.9 °C 1010.4 hPa NW 14.8 km/h 14.8 km/h 72 % 0.0 mm 0.0 W/m2 CLR
06:16 6.6 °C 1.3 °C 1010.4 hPa WNW 19.3 km/h 19.3 km/h 69 % 0.0 mm 0.0 W/m2 CLR
06:21 6.4 °C 0.9 °C 1010.4 hPa NNW 25.9 km/h 25.9 km/h 68 % 0.0 mm 0.0 W/m2 CLR
06:26 6.3 °C 0.8 °C 1010.7 hPa WNW 31.5 km/h 31.5 km/h 68 % 0.0 mm 0.0 W/m2 CLR
06:31 6.2 °C 0.7 °C 1010.7 hPa NW 27.8 km/h 27.8 km/h 68 % 0.0 mm 0.0 W/m2 CLR
06:36 6.1 °C 0.7 °C 1010.7 hPa NNW 24.1 km/h 24.1 km/h 68 % 0.0 mm 0.0 W/m2 CLR
06:41 6.0 °C 0.6 °C 1010.7 hPa NW 18.5 km/h 18.5 km/h 68 % 0.0 mm 0.0 W/m2 CLR
06:46 6.0 °C 0.7 °C 1010.7 hPa NW 20.9 km/h 20.9 km/h 69 % 0.0 mm 0.0 W/m2 CLR
06:51 5.9 °C 0.6 °C 1011.1 hPa NW 18.5 km/h 18.5 km/h 69 % 0.0 mm 0.0 W/m2 OVC
06:56 5.9 °C 0.6 °C 1011.1 hPa NW 16.7 km/h 16.7 km/h 69 % 0.0 mm 0.0 W/m2 OVC
07:01 5.8 °C 0.7 °C 1011.1 hPa NNW 14.8 km/h 14.8 km/h 70 % 0.0 mm 0.0 W/m2 OVC
07:06 5.7 °C 0.7 °C 1011.1 hPa WNW 16.7 km/h 16.7 km/h 70 % 0.0 mm 0.0 W/m2 OVC
07:11 5.6 °C 0.6 °C 1011.1 hPa NNW 18.5 km/h 18.5 km/h 70 % 0.0 mm 5.0 W/m2 OVC
07:16 5.6 °C 0.7 °C 1011.4 hPa WNW 13.0 km/h 13.0 km/h 71 % 0.0 mm 7.0 W/m2 BKN
07:21 5.4 °C 0.6 °C 1011.4 hPa NW 16.7 km/h 16.7 km/h 71 % 0.0 mm 9.0 W/m2 BKN
07:26 5.4 °C 0.6 °C 1011.4 hPa NW 16.7 km/h 16.7 km/h 71 % 0.0 mm 11.0 W/m2 BKN
07:31 5.3 °C 0.4 °C 1011.4 hPa NNW 13.0 km/h 13.0 km/h 71 % 0.0 mm 12.0 W/m2 BKN
07:36 5.2 °C 0.6 °C 1011.4 hPa NW 13.0 km/h 13.0 km/h 72 % 0.0 mm 16.0 W/m2 BKN
07:41 5.1 °C 0.4 °C 1011.7 hPa NW 11.3 km/h 11.3 km/h 72 % 0.0 mm 19.0 W/m2 BKN
07:46 4.9 °C 0.5 °C 1011.7 hPa WNW 9.3 km/h 9.3 km/h 73 % 0.0 mm 21.0 W/m2 BKN
07:51 4.8 °C 0.6 °C 1011.7 hPa WNW 9.7 km/h 9.7 km/h 74 % 0.0 mm 53.0 W/m2 SCT
07:56 4.8 °C 0.6 °C 1011.7 hPa WNW 11.3 km/h 11.3 km/h 74 % 0.0 mm 74.0 W/m2 FEW
08:01 4.9 °C 0.9 °C 1012.1 hPa NW 11.1 km/h 11.1 km/h 75 % 0.0 mm 105.0 W/m2 FEW
08:06 5.2 °C 0.9 °C 1012.1 hPa NNW 13.0 km/h 13.0 km/h 74 % 0.0 mm 137.0 W/m2 CLR
08:11 5.6 °C 0.9 °C 1012.1 hPa WNW 13.0 km/h 13.0 km/h 72 % 0.0 mm 156.0 W/m2 CLR
08:16 5.8 °C 1.1 °C 1012.1 hPa NW 13.0 km/h 13.0 km/h 72 % 0.0 mm 176.0 W/m2 CLR
08:21 6.0 °C 0.9 °C 1012.1 hPa NW 11.1 km/h 11.1 km/h 70 % 0.0 mm 199.0 W/m2 CLR
08:26 6.1 °C 1.2 °C 1012.1 hPa Calm     71 % 0.0 mm 216.0 W/m2 CLR
08:32 6.4 °C 1.1 °C 1012.1 hPa NW 16.7 km/h 16.7 km/h 69 % 0.0 mm 236.0 W/m2 CLR
08:37 6.6 °C 0.9 °C 1012.1 hPa NNW 18.5 km/h 18.5 km/h 67 % 0.0 mm 253.0 W/m2 CLR
08:42 6.7 °C 0.6 °C 1012.1 hPa WNW 14.8 km/h 14.8 km/h 65 % 0.0 mm 272.0 W/m2 CLR
08:47 6.9 °C 0.6 °C 1012.1 hPa NW 20.4 km/h 20.4 km/h 64 % 0.0 mm 292.0 W/m2 CLR
08:52 7.0 °C 0.2 °C 1012.1 hPa NW 33.3 km/h 33.3 km/h 62 % 0.0 mm 308.0 W/m2 CLR
08:57 7.1 °C 0.3 °C 1012.1 hPa NW 24.1 km/h 24.1 km/h 62 % 0.0 mm 323.0 W/m2 CLR
09:02 7.2 °C 0.4 °C 1012.1 hPa NNW 25.9 km/h 25.9 km/h 62 % 0.0 mm 339.0 W/m2 CLR
09:07 7.2 °C -0.1 °C 1012.1 hPa WNW 25.9 km/h 25.9 km/h 60 % 0.0 mm 353.0 W/m2 CLR
09:12 7.2 °C 0.2 °C 1012.1 hPa NW 22.2 km/h 22.2 km/h 61 % 0.0 mm 373.0 W/m2 CLR
09:17 7.3 °C 0.1 °C 1012.1 hPa NW 20.4 km/h 20.4 km/h 60 % 0.0 mm 387.0 W/m2 CLR
09:22 7.4 °C 0.1 °C 1012.1 hPa NNW 25.9 km/h 25.9 km/h 60 % 0.0 mm 403.0 W/m2 CLR
09:27 7.6 °C 0.3 °C 1011.7 hPa NW 22.2 km/h 22.2 km/h 60 % 0.0 mm 417.0 W/m2 CLR
09:32 7.7 °C 0.4 °C 1011.7 hPa WNW 14.8 km/h 14.8 km/h 60 % 0.0 mm 432.0 W/m2 CLR
09:37 7.9 °C 0.4 °C 1011.7 hPa NW 20.4 km/h 20.4 km/h 59 % 0.0 mm 448.0 W/m2 CLR
09:42 7.9 °C 0.4 °C 1011.7 hPa NW 22.2 km/h 22.2 km/h 59 % 0.0 mm 461.0 W/m2 CLR
09:47 8.1 °C 0.3 °C 1011.7 hPa NW 16.7 km/h 16.7 km/h 58 % 0.0 mm 478.0 W/m2 CLR
09:52 8.1 °C 0.3 °C 1011.7 hPa NW 17.7 km/h 18.0 km/h 58 % 0.0 mm 492.0 W/m2 CLR
09:57 8.1 °C 0.5 °C 1011.7 hPa NNW 20.4 km/h 20.4 km/h 59 % 0.0 mm 515.0 W/m2 CLR
10:02 8.0 °C 0.2 °C 1012.1 hPa NNW 22.2 km/h 22.2 km/h 58 % 0.0 mm 529.0 W/m2 CLR
10:08 8.2 °C 0.2 °C 1011.7 hPa WNW 18.5 km/h 18.5 km/h 57 % 0.0 mm 536.0 W/m2 CLR
10:13 8.4 °C 0.8 °C 1012.1 hPa NW 16.1 km/h 16.1 km/h 59 % 0.0 mm 555.0 W/m2 CLR
10:18 8.5 °C 0.2 °C 1011.7 hPa WNW 5.6 km/h 7.2 km/h 56 % 0.0 mm 568.0 W/m2 CLR
10:23 8.8 °C 1.0 °C 1011.7 hPa NNE 13.0 km/h 13.0 km/h 58 % 0.0 mm 578.0 W/m2 CLR
10:28 8.9 °C 0.6 °C 1011.7 hPa North 18.5 km/h 18.5 km/h 56 % 0.0 mm 587.0 W/m2 CLR
10:33 8.9 °C 0.6 °C 1011.7 hPa NNW 19.3 km/h 19.3 km/h 56 % 0.0 mm 617.0 W/m2 CLR
10:38 8.9 °C 0.9 °C 1011.7 hPa North 16.7 km/h 16.7 km/h 57 % 0.0 mm 640.0 W/m2 CLR
10:43 9.0 °C 0.7 °C 1011.7 hPa NNW 18.5 km/h 18.5 km/h 56 % 0.0 mm 624.0 W/m2 CLR
10:48 8.9 °C 0.6 °C 1011.7 hPa North 16.7 km/h 16.7 km/h 56 % 0.0 mm 640.0 W/m2 CLR
10:53 9.1 °C 0.3 °C 1011.7 hPa NNW 16.7 km/h 16.7 km/h 54 % 0.0 mm 657.0 W/m2 CLR
10:58 9.1 °C 0.6 °C 1011.7 hPa WNW 18.5 km/h 18.5 km/h 55 % 0.0 mm 659.0 W/m2 CLR
11:03 9.1 °C 0.6 °C 1011.7 hPa NNW 11.3 km/h 11.3 km/h 55 % 0.0 mm 677.0 W/m2 CLR
11:08 9.3 °C 0.2 °C 1011.7 hPa West 20.4 km/h 20.4 km/h 53 % 0.0 mm 682.0 W/m2 CLR
11:13 9.2 °C 0.9 °C 1011.7 hPa NW 20.9 km/h 20.9 km/h 56 % 0.0 mm 689.0 W/m2 CLR
11:18 9.2 °C 0.9 °C 1011.7 hPa NW 18.5 km/h 18.5 km/h 56 % 0.0 mm 698.0 W/m2 CLR
11:23 9.3 °C 0.9 °C 1011.7 hPa NNW 25.9 km/h 25.9 km/h 56 % 0.0 mm 710.0 W/m2 CLR
11:28 9.4 °C 0.3 °C 1011.7 hPa NW 13.0 km/h 13.0 km/h 53 % 0.0 mm 719.0 W/m2 CLR
11:33 9.5 °C 0.7 °C 1011.7 hPa NW 19.3 km/h 19.3 km/h 54 % 0.0 mm 738.0 W/m2 CLR
11:38 9.6 °C 1.3 °C 1011.7 hPa NW 25.9 km/h 25.9 km/h 56 % 0.0 mm 737.0 W/m2 CLR
11:43 9.6 °C 1.0 °C 1011.4 hPa West 16.1 km/h 16.1 km/h 55 % 0.0 mm 745.0 W/m2 CLR
11:48 9.6 °C 0.4 °C 1011.4 hPa WNW 18.5 km/h 18.5 km/h 53 % 0.0 mm 758.0 W/m2 CLR
11:53 9.7 °C 0.8 °C 1011.4 hPa NW 18.5 km/h 18.5 km/h 54 % 0.0 mm 777.0 W/m2 CLR
11:58 9.9 °C 1.3 °C 1011.4 hPa NW 22.2 km/h 22.2 km/h 55 % 0.0 mm 802.0 W/m2 CLR
12:03 10.1 °C 0.9 °C 1011.4 hPa NW 18.5 km/h 18.5 km/h 53 % 0.0 mm 766.0 W/m2 CLR
12:08 10.2 °C 0.7 °C 1011.1 hPa WNW 5.6 km/h 5.6 km/h 52 % 0.0 mm 766.0 W/m2 CLR
12:13 10.1 °C 0.4 °C 1011.1 hPa WNW 14.8 km/h 14.8 km/h 51 % 0.0 mm 795.0 W/m2 CLR
12:18 9.9 °C 0.3 °C 1011.1 hPa NW 5.6 km/h 5.6 km/h 51 % 0.0 mm 775.0 W/m2 CLR
12:23 10.4 °C 0.7 °C 1011.1 hPa NW 13.0 km/h 13.0 km/h 51 % 0.0 mm 782.0 W/m2 CLR
12:28 10.6 °C 0.8 °C 1011.1 hPa NW 20.4 km/h 20.4 km/h 51 % 0.0 mm 784.0 W/m2 CLR
12:33 10.5 °C 0.8 °C 1011.1 hPa North 14.8 km/h 14.8 km/h 51 % 0.0 mm 791.0 W/m2 CLR
12:38 10.5 °C 0.8 °C 1011.1 hPa North 20.9 km/h 20.9 km/h 51 % 0.0 mm 791.0 W/m2 CLR
12:43 10.8 °C 0.8 °C 1011.1 hPa NW 17.7 km/h 17.7 km/h 50 % 0.0 mm 795.0 W/m2 CLR
12:44 10.8 °C -0.1 °C 1011.1 hPa NNW 22.2 km/h 22.2 km/h 47 % 0.0 mm 796.0 W/m2 CLR
12:49 10.6 °C -0.2 °C 1011.1 hPa North 14.8 km/h 14.8 km/h 47 % 0.0 mm 798.0 W/m2 CLR
12:54 10.7 °C 0.7 °C 1010.7 hPa WNW 1.6 km/h 1.6 km/h 50 % 0.0 mm 800.0 W/m2 CLR
12:59 11.2 °C 0.9 °C 1010.7 hPa NNW 11.1 km/h 11.1 km/h 49 % 0.0 mm 800.0 W/m2 CLR
13:04 11.4 °C 0.4 °C 1010.7 hPa West 11.1 km/h 11.1 km/h 47 % 0.0 mm 802.0 W/m2 CLR
13:09 11.3 °C 0.7 °C 1010.7 hPa NW 14.8 km/h 14.8 km/h 48 % 0.0 mm 803.0 W/m2 CLR
13:14 11.4 °C 0.5 °C 1010.7 hPa NNW 14.8 km/h 14.8 km/h 47 % 0.0 mm 812.0 W/m2 CLR
13:19 11.5 °C 0.8 °C 1010.7 hPa WNW 14.8 km/h 14.8 km/h 48 % 0.0 mm 802.0 W/m2 CLR
13:24 11.7 °C 0.4 °C 1010.7 hPa WNW 16.7 km/h 16.7 km/h 46 % 0.0 mm 803.0 W/m2 CLR
13:29 11.6 °C 0.4 °C 1010.7 hPa Calm     46 % 0.0 mm 809.0 W/m2 CLR
13:34 11.9 °C 0.7 °C 1010.7 hPa NNW 17.7 km/h 17.7 km/h 46 % 0.0 mm 831.0 W/m2 CLR
13:39 11.8 °C -0.1 °C 1010.7 hPa Calm     44 % 0.0 mm 853.0 W/m2 CLR
13:44 11.8 °C -0.1 °C 1010.7 hPa Calm     44 % 0.0 mm 817.0 W/m2 CLR
13:49 11.9 °C 0.3 °C 1010.4 hPa Calm     45 % 0.0 mm 796.0 W/m2 CLR
13:54 12.1 °C 0.2 °C 1010.4 hPa WNW 5.6 km/h 5.6 km/h 44 % 0.0 mm 803.0 W/m2 CLR
13:59 12.4 °C -0.5 °C 1010.4 hPa NNW 1.9 km/h   41 % 0.0 mm 830.0 W/m2 CLR
14:04 12.5 °C -0.1 °C 1010.4 hPa NNE 14.8 km/h 14.8 km/h 42 % 0.0 mm 795.0 W/m2 CLR
14:05 12.6 °C -0.1 °C 1010.4 hPa North 14.8 km/h 14.8 km/h 42 % 0.0 mm 795.0 W/m2 CLR
14:10 12.1 °C -0.2 °C 1010.4 hPa NNE 16.7 km/h 16.7 km/h 43 % 0.0 mm 130.0 W/m2 CLR
14:15 11.8 °C -0.4 °C 1010.4 hPa Calm     43 % 0.0 mm 833.0 W/m2 CLR
14:20 12.2 °C -0.4 °C 1010.0 hPa West 9.3 km/h 9.3 km/h 42 % 0.0 mm 772.0 W/m2 CLR
14:25 12.5 °C -0.4 °C 1010.0 hPa NE 1.6 km/h 1.6 km/h 41 % 0.0 mm 780.0 W/m2 CLR
14:30 12.9 °C 0.3 °C 1010.0 hPa SW 3.2 km/h 3.2 km/h 42 % 0.0 mm 772.0 W/m2 CLR
14:35 13.1 °C -0.3 °C 1009.7 hPa WNW 3.7 km/h   40 % 0.0 mm 772.0 W/m2 CLR
14:40 13.2 °C -0.4 °C 1009.7 hPa Calm     39 % 0.0 mm 770.0 W/m2 CLR
14:45 13.6 °C -0.2 °C 1009.7 hPa NE 5.6 km/h 5.6 km/h 39 % 0.0 mm 758.0 W/m2 CLR
14:50 13.5 °C -0.6 °C 1009.7 hPa Calm     38 % 0.0 mm 640.0 W/m2 CLR
14:55 13.3 °C 0.0 °C 1009.7 hPa North 20.4 km/h 20.4 km/h 40 % 0.0 mm 643.0 W/m2 CLR
15:00 12.9 °C -0.7 °C 1009.4 hPa NW 11.3 km/h 11.9 km/h 39 % 0.0 mm 524.0 W/m2 CLR
15:05 12.7 °C -0.2 °C 1009.4 hPa NW 13.0 km/h 13.0 km/h 41 % 0.0 mm 524.0 W/m2 CLR
15:10 12.6 °C -0.7 °C 1009.4 hPa NNW 18.5 km/h 18.5 km/h 40 % 0.0 mm 735.0 W/m2 CLR
15:15 12.7 °C -0.6 °C 1009.4 hPa NW 20.4 km/h 20.4 km/h 40 % 0.0 mm 752.0 W/m2 CLR
15:20 12.3 °C -0.2 °C 1009.4 hPa North 14.8 km/h 14.8 km/h 42 % 0.0 mm 397.0 W/m2 CLR
15:25 12.3 °C -0.9 °C 1009.4 hPa North 20.4 km/h 20.4 km/h 40 % 0.0 mm 348.0 W/m2 CLR
15:30 12.1 °C -1.2 °C 1009.4 hPa NE 19.3 km/h 19.3 km/h 40 % 0.0 mm 309.0 W/m2 CLR
15:35 11.9 °C -1.3 °C 1009.4 hPa ENE 18.5 km/h 18.5 km/h 40 % 0.0 mm 246.0 W/m2 CLR
15:40 11.9 °C -0.9 °C 1009.4 hPa NNE 13.0 km/h 13.4 km/h 41 % 0.0 mm 204.0 W/m2 CLR
15:45 11.8 °C -1.4 °C 1009.7 hPa Calm     40 % 0.0 mm 153.0 W/m2 CLR
15:50 11.7 °C -0.8 °C 1009.7 hPa North 12.9 km/h 12.9 km/h 42 % 0.0 mm 109.0 W/m2 CLR
15:55 11.6 °C -1.3 °C 1009.7 hPa NE 14.8 km/h 14.8 km/h 41 % 0.0 mm 77.0 W/m2 CLR
16:00 11.4 °C -1.4 °C 1010.0 hPa Calm     41 % 0.0 mm 62.0 W/m2 FEW
16:02 11.4 °C -1.4 °C 1010.0 hPa Calm     41 % 0.0 mm 58.0 W/m2 FEW
16:07 11.4 °C -1.4 °C 1010.0 hPa Calm     41 % 0.0 mm 47.0 W/m2 SCT
16:12 11.3 °C -1.1 °C 1010.0 hPa Calm     42 % 0.0 mm 42.0 W/m2 SCT
16:17 11.3 °C -0.8 °C 1010.4 hPa Calm     43 % 0.0 mm 39.0 W/m2 BKN
16:22 11.2 °C -0.1 °C 1010.4 hPa SW 38.9 km/h 38.9 km/h 46 % 0.0 mm 35.0 W/m2 BKN
16:27 10.0 °C 0.8 °C 1010.7 hPa WSW 25.9 km/h 25.9 km/h 53 % 0.0 mm 33.0 W/m2 BKN
16:32 9.4 °C 1.6 °C 1011.1 hPa SW 12.9 km/h 12.9 km/h 58 % 0.3 mm 33.0 W/m2 RA
16:37 9.1 °C 1.4 °C 1011.1 hPa SSW 22.2 km/h 22.2 km/h 59 % 0.3 mm 44.0 W/m2 BKN
16:42 8.9 °C 2.2 °C 1011.1 hPa South 18.5 km/h 18.5 km/h 63 % 0.5 mm 42.0 W/m2 RA
16:47 8.7 °C 2.0 °C 1011.1 hPa SSW 18.5 km/h 18.5 km/h 63 % 0.5 mm 33.0 W/m2 BKN
16:52 8.4 °C 2.8 °C 1011.1 hPa SSW 8.0 km/h 8.0 km/h 68 % 0.5 mm 33.0 W/m2 BKN
16:57 8.1 °C 2.9 °C 1011.1 hPa South 18.5 km/h 18.5 km/h 70 % 0.5 mm 58.0 W/m2 BKN
17:02 8.0 °C 2.7 °C 1011.1 hPa SSW 18.5 km/h 18.5 km/h 69 % 0.5 mm 86.0 W/m2 SCT
17:07 7.9 °C 2.8 °C 1011.1 hPa South 18.5 km/h 18.5 km/h 70 % 0.5 mm 84.0 W/m2 FEW
17:12 7.7 °C 2.8 °C 1011.1 hPa South 11.1 km/h 11.1 km/h 71 % 0.5 mm 74.0 W/m2 RA
17:17 7.6 °C 3.1 °C 1011.1 hPa SSE 14.8 km/h 14.8 km/h 73 % 0.5 mm 118.0 W/m2 FEW
17:19 7.6 °C 3.2 °C 1011.1 hPa South 14.8 km/h 14.8 km/h 74 % 0.5 mm 121.0 W/m2 CLR
17:24 7.5 °C 3.2 °C 1011.1 hPa SSW 18.5 km/h 18.5 km/h 74 % 0.5 mm 105.0 W/m2 CLR
17:29 7.4 °C 3.4 °C 1011.1 hPa SSE 11.1 km/h 11.1 km/h 76 % 0.5 mm 105.0 W/m2 CLR
17:34 7.3 °C 3.6 °C 1011.1 hPa SSE 22.5 km/h 22.5 km/h 77 % 0.5 mm 109.0 W/m2 CLR
17:39 7.4 °C 3.4 °C 1011.1 hPa South 16.7 km/h 16.7 km/h 76 % 0.3 mm 125.0 W/m2 CLR
17:44 7.2 °C 3.7 °C 1011.4 hPa South 18.5 km/h 18.5 km/h 78 % 0.3 mm 139.0 W/m2 CLR
17:49 7.1 °C 3.7 °C 1011.4 hPa SSE 19.3 km/h 19.3 km/h 79 % 0.3 mm 244.0 W/m2 CLR
17:54 7.3 °C 3.9 °C 1011.4 hPa SSE 27.8 km/h 27.8 km/h 79 % 0.3 mm 283.0 W/m2 CLR
17:59 7.4 °C 3.8 °C 1011.4 hPa SE 25.7 km/h 25.7 km/h 78 % 0.3 mm 281.0 W/m2 CLR
18:04 7.4 °C 3.8 °C 1011.4 hPa SSE 18.5 km/h 18.5 km/h 78 % 0.3 mm 137.0 W/m2 CLR
18:09 7.3 °C 3.7 °C 1011.4 hPa SE 18.5 km/h 18.5 km/h 78 % 0.3 mm 111.0 W/m2 CLR
18:14 7.1 °C 3.7 °C 1011.4 hPa South 18.5 km/h 18.5 km/h 79 % 0.0 mm 97.0 W/m2 CLR
18:19 6.9 °C 3.7 °C 1011.7 hPa SE 16.7 km/h 16.7 km/h 80 % 0.0 mm 84.0 W/m2 CLR
18:24 6.8 °C 3.6 °C 1011.7 hPa SSE 11.3 km/h 11.3 km/h 80 % 0.0 mm 65.0 W/m2 FEW
18:29 6.7 °C 3.6 °C 1011.7 hPa South 13.0 km/h 13.0 km/h 81 % 0.0 mm 46.0 W/m2 SCT
18:34 6.6 °C 3.5 °C 1011.7 hPa South 20.4 km/h 20.4 km/h 81 % 0.0 mm 33.0 W/m2 BKN
18:40 6.6 °C 3.6 °C 1012.1 hPa SSE 22.2 km/h 22.2 km/h 81 % 0.0 mm 28.0 W/m2 BKN
18:44 6.6 °C 3.6 °C 1011.7 hPa South 16.7 km/h 16.7 km/h 81 % 0.0 mm 28.0 W/m2 BKN
18:49 6.6 °C 3.3 °C 1012.1 hPa SSE 22.2 km/h 22.2 km/h 80 % 0.0 mm 28.0 W/m2 BKN
18:54 6.6 °C 3.5 °C 1012.1 hPa South 18.5 km/h 18.5 km/h 81 % 0.0 mm 21.0 W/m2 BKN
18:59 6.6 °C 3.3 °C 1012.1 hPa SSE 18.5 km/h 18.5 km/h 80 % 0.0 mm 12.0 W/m2 BKN
19:05 6.6 °C 3.2 °C 1012.1 hPa South 12.9 km/h 12.9 km/h 79 % 0.0 mm 5.0 W/m2 BKN
19:10 6.6 °C 3.1 °C 1012.1 hPa SSE 18.5 km/h 18.5 km/h 78 % 0.0 mm 0.0 W/m2 OVC
19:15 6.6 °C 3.1 °C 1012.1 hPa South 14.8 km/h 14.8 km/h 78 % 0.0 mm 0.0 W/m2 OVC
19:20 6.6 °C 3.1 °C 1012.1 hPa South 18.5 km/h 18.5 km/h 78 % 0.0 mm 0.0 W/m2 OVC
19:25 6.6 °C 3.1 °C 1012.1 hPa South 22.2 km/h 22.2 km/h 78 % 0.0 mm 0.0 W/m2 OVC
19:30 6.4 °C 3.1 °C 1012.1 hPa SSE 14.8 km/h 14.8 km/h 79 % 0.0 mm 0.0 W/m2 CLR
19:35 6.4 °C 2.9 °C 1012.1 hPa South 20.4 km/h 20.4 km/h 78 % 0.0 mm 0.0 W/m2 CLR
19:40 6.4 °C 2.8 °C 1012.4 hPa SSE 20.4 km/h 20.4 km/h 78 % 0.0 mm 0.0 W/m2 CLR
19:45 6.4 °C 2.8 °C 1012.4 hPa SE 14.5 km/h 14.5 km/h 78 % 0.0 mm 0.0 W/m2 CLR
19:50 6.4 °C 2.8 °C 1012.4 hPa SSE 14.8 km/h 14.8 km/h 78 % 0.0 mm 0.0 W/m2 CLR
19:55 6.5 °C 2.8 °C 1012.4 hPa SSE 14.8 km/h 14.8 km/h 77 % 0.0 mm 0.0 W/m2 CLR
20:00 6.6 °C 2.8 °C 1012.4 hPa SE 13.0 km/h 13.0 km/h 77 % 0.0 mm 0.0 W/m2 CLR
20:05 6.5 °C 2.9 °C 1012.4 hPa SSE 11.1 km/h 11.1 km/h 78 % 0.0 mm 0.0 W/m2 CLR
20:10 6.4 °C 2.8 °C 1012.8 hPa South 9.3 km/h 9.3 km/h 78 % 0.0 mm 0.0 W/m2 CLR
20:15 6.3 °C 2.7 °C 1012.8 hPa SSW 5.6 km/h   78 % 0.0 mm 0.0 W/m2 CLR
20:20 6.2 °C 2.8 °C 1012.8 hPa SSW 5.6 km/h 5.6 km/h 79 % 0.0 mm 0.0 W/m2 CLR
20:25 6.1 °C 2.7 °C 1012.8 hPa Calm     79 % 0.0 mm 0.0 W/m2 CLR
20:30 5.9 °C 2.7 °C 1012.8 hPa Calm     80 % 0.0 mm 0.0 W/m2 CLR
20:35 5.8 °C 2.6 °C 1012.8 hPa Calm     80 % 0.0 mm 0.0 W/m2 CLR
20:40 5.6 °C 2.6 °C 1012.8 hPa Calm     81 % 0.0 mm 0.0 W/m2 CLR
20:45 5.5 °C 2.7 °C 1012.8 hPa Calm     82 % 0.0 mm 0.0 W/m2 CLR
20:50 5.4 °C 2.4 °C 1012.8 hPa Calm     81 % 0.0 mm 0.0 W/m2 CLR
20:55 5.3 °C 2.4 °C 1012.8 hPa Calm     82 % 0.0 mm 0.0 W/m2 CLR
21:00 5.2 °C 2.4 °C 1013.1 hPa Calm     82 % 0.0 mm 0.0 W/m2 CLR
21:05 5.2 °C 2.3 °C 1013.1 hPa Calm     82 % 0.0 mm 0.0 W/m2 CLR
21:10 5.2 °C 2.5 °C 1013.1 hPa Calm     83 % 0.0 mm 0.0 W/m2 CLR
21:15 5.2 °C 2.4 °C 1013.1 hPa Calm     82 % 0.0 mm 0.0 W/m2 CLR
21:20 5.2 °C 2.4 °C 1013.1 hPa Calm     82 % 0.0 mm 0.0 W/m2 CLR
21:25 5.2 °C 2.4 °C 1013.4 hPa Calm     82 % 0.0 mm 0.0 W/m2 CLR
21:30 5.3 °C 2.3 °C 1013.1 hPa Calm     81 % 0.0 mm 0.0 W/m2 CLR
21:35 5.3 °C 2.3 °C 1013.4 hPa Calm     81 % 0.0 mm 0.0 W/m2 CLR
21:40 5.3 °C 2.4 °C 1013.4 hPa Calm     82 % 0.0 mm 0.0 W/m2 CLR
21:45 5.2 °C 2.3 °C 1013.4 hPa Calm     82 % 0.0 mm 0.0 W/m2 CLR
21:50 5.1 °C 2.4 °C 1013.8 hPa Calm     83 % 0.0 mm 0.0 W/m2 CLR
21:55 4.8 °C 2.3 °C 1013.8 hPa Calm     84 % 0.0 mm 0.0 W/m2 CLR
22:00 4.8 °C 2.4 °C 1013.8 hPa Calm     85 % 0.0 mm 0.0 W/m2 CLR
22:05 4.8 °C 2.5 °C 1013.8 hPa Calm     85 % 0.0 mm 0.0 W/m2 CLR
22:10 4.7 °C 2.4 °C 1013.8 hPa Calm     85 % 0.0 mm 0.0 W/m2 CLR
22:15 4.6 °C 2.3 °C 1013.8 hPa Calm     85 % 0.0 mm 0.0 W/m2 CLR
22:20 4.4 °C 2.3 °C 1013.8 hPa Calm     86 % 0.0 mm 0.0 W/m2 CLR
22:25 4.4 °C 2.3 °C 1014.1 hPa Calm     86 % 0.0 mm 0.0 W/m2 CLR
22:30 4.3 °C 2.3 °C 1014.1 hPa Calm     87 % 0.0 mm 0.0 W/m2 CLR
22:35 4.3 °C 2.3 °C 1013.8 hPa Calm     87 % 0.0 mm 0.0 W/m2 CLR
22:40 4.2 °C 2.2 °C 1013.8 hPa Calm     87 % 0.0 mm 0.0 W/m2 CLR
22:45 4.2 °C 2.2 °C 1013.8 hPa Calm     87 % 0.0 mm 0.0 W/m2 CLR
22:50 4.2 °C 2.2 °C 1014.1 hPa Calm     87 % 0.0 mm 0.0 W/m2 CLR
22:55 4.2 °C 2.3 °C 1014.1 hPa Calm     88 % 0.0 mm 0.0 W/m2 CLR
23:01 4.1 °C 2.1 °C 1014.1 hPa Calm     87 % 0.0 mm 0.0 W/m2 CLR
23:06 4.0 °C 2.2 °C 1014.1 hPa Calm     88 % 0.0 mm 0.0 W/m2 CLR
23:11 3.9 °C 2.1 °C 1014.1 hPa Calm     88 % 0.0 mm 0.0 W/m2 CLR
23:16 3.8 °C 2.0 °C 1014.4 hPa Calm     88 % 0.0 mm 0.0 W/m2 CLR
23:21 3.7 °C 2.1 °C 1014.1 hPa Calm     89 % 0.0 mm 0.0 W/m2 CLR
23:26 3.7 °C 2.0 °C 1014.4 hPa Calm     89 % 0.0 mm 0.0 W/m2 CLR
23:31 3.6 °C 1.9 °C 1014.1 hPa Calm     89 % 0.0 mm 0.0 W/m2 CLR
23:36 3.6 °C 1.9 °C 1014.1 hPa Calm     89 % 0.0 mm 0.0 W/m2 CLR
23:41 3.7 °C 2.0 °C 1014.1 hPa Calm     89 % 0.0 mm 0.0 W/m2 CLR
23:46 3.6 °C 1.9 °C 1014.4 hPa Calm     89 % 0.0 mm 0.0 W/m2 CLR
23:51 3.5 °C 1.8 °C 1014.4 hPa Calm     89 % 0.0 mm 0.0 W/m2 CLR
23:56 3.4 °C 1.7 °C 1014.4 hPa Calm     89 % 0.0 mm 0.0 W/m2 CLR
Lo Temps de Massalio
Compliments of Weather Underground - 1.25 mb